CAPE
0 2 3 2 2 1 2 2 1 1 1 0 0 0 0 nan nan nan nan nan nan nan nan 0 0 0 1 0 0 0 nan nan nan nan nan nan nan nan nan nan nan nan nan nan nan nan nan nan nan nan nan nan nan nan nan nan nan nan nan nan nan 2 6 10 10 13 14 15 9 9 8 4 nan nan nan nan nan nan nan nan nan nan nan nan nan nan
1 2 2 2 2 1 1 4 1 1 0 0 0 0 0 nan nan nan nan nan nan nan nan 1 1 2 1 1 1 1 nan nan nan nan nan nan nan nan nan nan nan nan nan nan nan nan nan nan nan nan nan nan nan nan nan nan nan nan nan nan nan nan nan 2 2 8 10 9 8 8 5 0 nan nan nan nan nan nan nan nan nan nan nan nan nan nan
1 1 1 3 3 2 1 4 1 1 1 0 0 0 0 nan nan nan nan nan nan nan nan nan nan 3 2 2 2 2 nan nan nan nan nan nan nan nan nan nan nan nan nan nan nan nan nan nan nan nan nan nan nan nan nan nan nan nan nan nan nan nan nan nan nan nan 1 1 1 1 nan nan nan nan nan nan nan nan nan nan nan nan nan nan nan nan
0 0 1 2 2 2 1 1 1 1 0 0 1 1 0 0 nan nan nan nan nan nan nan nan nan 1 2 2 4 4 1 nan nan nan nan nan nan nan nan nan nan nan nan nan nan nan nan nan nan nan nan nan nan nan nan nan nan nan nan nan nan nan nan nan nan nan nan nan nan nan nan nan nan nan nan nan nan nan nan nan nan nan nan nan nan nan
0 0 1 1 1 1 2 1 1 1 1 0 0 0 nan nan nan nan nan nan nan nan nan nan nan nan 2 3 4 4 2 nan nan nan nan nan nan nan nan nan nan nan nan nan nan nan nan nan nan nan nan nan nan nan nan nan nan nan nan nan nan nan nan nan nan nan nan nan nan nan nan nan nan nan nan nan nan nan nan nan nan nan nan nan nan nan
0 nan nan 0 0 0 nan 0 0 0 1 0 nan nan nan nan nan nan nan nan nan nan nan nan nan nan nan 3 3 3 2 1 0 0 0 nan nan nan nan nan nan nan nan nan nan nan nan nan nan nan nan nan nan nan nan nan nan nan nan nan nan nan nan nan nan nan nan nan nan nan nan nan nan nan nan nan nan nan nan nan nan nan nan nan nan nan
nan nan nan nan nan 0 0 nan 0 0 nan 0 nan nan nan nan nan nan nan nan nan nan nan nan nan nan nan 3 6 6 3 2 0 0 0 nan nan nan nan nan nan nan nan nan nan nan nan nan nan nan nan nan nan nan nan nan nan nan nan nan nan nan nan nan nan nan nan nan nan nan nan nan nan nan nan nan nan nan nan nan nan nan nan nan nan nan
nan nan 0 nan nan 0 0 0 1 1 0 nan nan nan 0 0 nan nan nan nan nan nan nan nan nan nan nan nan 3 3 nan nan nan nan nan nan nan nan nan nan nan nan nan nan nan nan nan nan nan nan nan nan nan nan nan nan nan nan nan nan nan nan nan nan nan nan nan nan nan nan nan nan nan nan nan nan nan nan nan nan nan nan nan nan nan nan
nan nan 0 nan nan nan nan 0 2 2 1 nan nan nan nan nan nan nan nan nan nan nan nan nan nan nan nan nan 1 1 nan nan nan nan nan nan nan nan nan nan nan nan nan nan nan nan nan nan nan nan nan nan nan nan nan nan nan nan nan nan nan nan nan nan nan nan nan nan nan nan nan nan nan nan nan nan nan nan nan nan nan nan nan nan nan nan
nan nan nan nan nan nan nan 0 2 2 0 0 nan nan nan nan nan nan nan nan nan nan nan nan nan nan nan nan 0 0 nan nan 0 0 0 nan nan nan nan nan nan nan nan nan nan nan nan nan nan nan nan nan nan nan nan nan nan nan nan nan nan nan nan nan nan nan nan nan nan nan nan nan nan nan nan nan nan nan nan nan nan nan nan nan nan nan
nan nan nan 0 0 nan nan nan nan nan nan 0 1 1 nan nan nan nan nan nan nan nan nan nan nan nan nan nan nan nan nan nan nan nan nan nan nan nan nan nan nan nan nan nan nan nan nan nan nan nan nan nan nan nan nan nan nan nan nan nan nan nan nan nan nan nan nan nan nan nan nan nan nan nan nan nan nan nan nan nan nan nan nan nan nan 0
nan nan nan nan nan nan nan nan nan nan nan nan 0 0 1 nan nan nan nan nan nan nan nan nan nan nan nan nan nan nan nan nan nan nan nan nan nan nan nan nan nan nan nan nan nan nan nan nan nan nan nan nan nan nan nan nan nan nan nan nan nan nan nan nan nan nan nan nan nan nan nan nan nan nan nan nan nan nan nan nan nan nan nan nan nan 0
nan nan nan nan nan nan nan nan nan nan nan nan nan nan 0 nan nan nan nan nan nan nan nan nan nan nan nan nan nan nan nan nan nan nan nan nan nan nan nan nan nan nan nan nan nan nan nan nan nan nan nan nan nan nan nan nan nan nan nan nan nan nan nan nan nan nan nan nan nan nan nan nan nan nan nan nan nan nan nan nan nan nan nan nan nan nan
nan nan nan nan nan nan 0 nan nan nan nan nan nan nan nan nan nan nan nan nan nan nan nan nan nan nan nan nan nan nan nan nan nan nan nan nan nan nan nan nan nan nan nan nan nan nan nan nan nan nan nan nan nan nan nan nan nan nan nan nan nan nan nan nan nan nan nan nan 0 0 nan nan nan nan nan nan nan nan nan nan nan nan nan nan nan nan
nan nan nan 0 0 0 nan nan nan nan nan nan nan nan nan nan nan nan nan nan nan nan nan nan nan nan 0 nan nan nan nan nan nan nan nan nan nan nan nan nan nan nan nan nan nan nan nan nan nan nan nan nan nan nan nan nan nan nan nan nan nan nan nan nan nan nan nan nan 0 0 0 0 0 0 0 0 nan nan nan nan nan nan nan nan nan nan
nan nan nan nan nan nan nan nan nan nan nan nan nan nan nan nan nan nan nan nan nan nan nan nan nan nan 0 nan nan nan nan nan nan nan nan nan nan nan nan nan nan nan nan nan nan nan nan nan nan nan nan nan nan nan nan nan nan nan nan nan nan nan nan nan nan nan nan nan nan nan 0 0 0 0 0 0 nan nan nan nan nan nan nan nan nan nan
nan nan nan nan nan nan nan nan nan nan nan nan nan nan nan nan nan nan nan nan nan nan nan nan nan nan nan nan nan nan nan nan nan nan nan nan nan nan nan nan nan nan nan nan nan nan nan nan nan nan nan nan nan nan nan nan nan nan nan 0 0 0 nan nan nan nan nan nan 0 0 1 1 1 1 1 0 nan nan nan nan nan nan nan nan nan nan
nan nan nan nan nan nan nan nan nan nan nan nan nan nan nan nan nan nan nan nan nan nan nan nan nan nan nan nan nan nan nan nan nan nan nan nan nan nan nan nan nan nan nan nan nan nan nan nan nan nan nan nan nan nan nan nan nan nan nan 0 0 0 nan nan nan nan 0 0 1 1 1 1 1 1 1 0 nan nan nan nan nan nan nan nan nan nan
nan nan nan nan nan nan nan nan nan nan nan nan nan nan nan nan nan nan nan nan nan nan nan nan nan nan nan nan nan nan nan nan nan nan nan nan nan nan nan nan nan nan nan nan nan nan nan nan nan nan nan nan nan nan nan nan nan nan 0 0 0 0 nan nan nan nan 0 1 1 1 1 1 1 1 1 0 nan nan nan nan nan nan nan nan nan nan
nan nan nan nan nan nan nan nan nan nan nan nan nan nan nan nan nan nan nan nan nan nan nan nan nan nan nan nan nan nan nan nan nan nan nan nan nan nan nan nan nan nan nan nan nan nan nan nan nan nan nan nan nan nan nan nan nan 0 1 1 1 nan nan nan nan nan 1 1 1 1 1 1 1 1 1 1 0 0 nan nan nan nan nan nan nan nan
0 nan nan nan nan nan nan nan nan nan nan nan nan nan nan nan nan nan nan nan nan nan nan nan nan nan nan nan nan nan nan nan nan nan nan nan nan nan nan nan nan nan nan nan nan nan nan nan nan nan nan nan nan nan nan 0 0 1 1 0 0 nan nan nan nan 0 1 1 2 2 1 1 1 1 1 0 0 0 0 nan nan nan nan nan nan nan
0 1 0 0 0 0 0 nan nan nan nan nan nan nan nan nan nan nan nan nan nan nan nan nan nan nan nan nan nan nan nan nan nan nan nan nan nan nan nan nan nan nan nan nan nan nan nan nan nan nan nan nan nan nan nan 1 1 1 1 0 0 nan nan 0 0 1 2 2 2 2 2 1 1 1 0 0 0 0 0 0 0 0 2 0 0 nan
nan 0 nan 1 1 nan nan nan nan nan nan nan nan nan nan nan nan nan nan nan nan nan nan nan nan nan nan nan nan nan nan nan nan nan nan nan nan nan nan nan nan nan nan nan nan nan nan nan nan nan nan nan nan nan nan 2 2 2 2 1 1 0 0 1 1 1 1 2 2 2 2 1 1 1 0 nan nan nan nan 0 0 1 1 1 1 0
nan nan nan nan nan nan nan nan nan nan nan nan nan nan nan nan nan nan nan nan nan nan nan nan nan nan nan nan nan nan nan nan nan nan nan nan nan nan nan nan nan nan nan nan nan nan nan nan nan nan nan nan nan nan nan 3 3 2 2 2 2 2 1 1 1 1 1 2 2 2 1 1 0 0 0 nan nan nan nan 0 0 0 0 0 0 0
nan nan nan nan nan nan nan nan nan nan nan nan nan nan nan nan nan nan nan nan nan nan nan nan nan nan nan nan nan nan nan nan nan nan nan nan nan nan nan nan nan nan nan nan nan nan nan nan nan nan nan nan nan nan nan 3 3 3 3 3 3 3 2 1 1 1 1 1 1 1 1 1 0 0 0 nan nan nan nan nan nan nan nan nan nan nan
nan nan nan nan nan nan nan nan nan nan nan nan nan nan nan nan nan nan nan nan nan nan nan nan nan nan nan nan nan nan nan nan nan nan nan nan nan nan nan nan nan nan nan nan nan nan nan nan nan nan nan nan nan nan 0 5 5 3 4 4 4 3 2 2 2 1 1 1 1 1 1 0 0 0 0 nan nan nan nan nan nan nan nan nan nan nan
nan nan nan nan nan nan nan nan nan nan nan nan nan nan nan nan nan nan nan nan nan nan nan nan nan nan nan nan nan nan nan nan nan nan nan nan nan nan nan nan nan nan nan nan nan nan nan nan nan nan nan nan nan nan 2 5 5 4 4 4 4 3 2 2 2 1 1 1 1 1 0 0 0 0 nan nan nan nan nan nan nan nan nan nan nan nan
nan nan nan nan nan nan nan 1 1 1 0 nan nan nan nan nan nan nan nan nan nan nan nan nan nan nan nan nan nan nan nan nan nan nan nan nan nan nan nan nan nan nan nan nan nan nan nan nan nan nan nan nan nan nan 1 4 4 4 3 3 3 3 3 2 2 1 1 0 0 0 0 0 0 0 0 nan nan nan 0 nan nan nan nan nan nan nan
nan nan nan nan nan nan 1 5 5 5 3 0 nan nan nan nan nan nan nan nan nan nan nan nan nan nan nan nan nan nan nan nan nan nan nan nan nan nan nan nan nan nan nan nan nan nan nan nan nan nan nan nan nan nan nan 2 2 3 4 3 3 3 3 2 2 2 1 0 nan nan nan 0 0 0 0 0 0 0 1 0 0 nan nan nan nan nan
0 0 0 0 0 2 3 3 5 5 5 2 0 0 nan nan nan nan nan nan nan nan nan nan nan nan nan nan nan nan nan nan nan nan nan nan nan nan nan nan nan nan nan nan nan nan nan nan nan nan nan nan nan nan nan nan nan nan 0 3 3 2 1 1 1 0 0 nan nan nan nan nan nan nan nan 0 1 1 1 1 1 nan nan nan nan nan
nan nan 0 0 0 1 0 0 3 3 7 7 3 3 nan nan nan nan nan nan nan nan nan nan nan nan nan nan nan nan nan nan nan nan nan nan nan nan nan nan nan nan nan nan nan nan nan nan nan nan nan nan nan nan nan nan nan nan nan nan nan nan nan nan nan nan nan nan nan nan nan nan nan nan nan nan 0 0 1 1 1 0 0 nan nan nan
nan nan nan nan nan nan nan nan nan nan nan nan nan nan nan nan nan nan nan nan nan nan nan nan nan nan nan nan nan nan nan nan nan nan nan nan nan nan nan nan nan nan nan nan nan nan nan nan nan nan nan nan nan nan nan nan nan nan nan nan nan nan nan nan nan nan nan nan nan nan nan nan nan nan nan nan nan nan nan nan nan nan nan nan nan nan
nan nan nan nan nan nan nan nan nan nan nan nan nan nan nan nan nan nan nan nan nan nan nan nan nan nan nan nan nan nan nan nan nan nan nan nan nan nan nan nan nan nan nan nan nan nan nan nan nan nan nan nan nan nan nan nan nan nan nan nan nan nan nan nan nan nan nan nan nan nan nan nan nan nan nan nan nan nan nan nan nan nan nan nan nan nan
nan nan nan nan nan nan nan nan nan nan nan nan nan nan nan nan nan nan nan nan nan nan nan nan nan nan nan nan nan nan nan nan nan nan nan nan nan nan nan nan nan nan nan nan nan nan nan nan nan nan nan nan nan nan nan nan nan nan nan nan nan nan nan nan nan nan nan nan nan nan nan nan nan nan nan nan nan nan nan nan nan 0 nan nan nan nan
nan nan nan nan nan nan nan nan nan nan nan nan nan nan nan nan nan nan nan nan nan nan nan nan nan nan nan nan nan nan nan nan nan nan nan nan nan nan nan nan nan nan nan nan nan nan nan nan nan nan nan nan nan nan nan nan nan nan nan nan nan nan nan nan nan nan nan nan nan nan nan nan nan nan nan nan nan nan nan nan nan nan 0 1 1 0
nan nan nan nan nan nan nan nan nan nan nan nan nan nan nan nan nan nan nan nan nan nan nan nan nan nan nan nan nan nan nan nan nan nan nan nan nan nan nan nan nan nan nan nan nan nan nan nan nan nan nan nan nan nan nan nan nan nan nan nan nan nan nan nan nan nan nan nan nan nan nan nan nan nan nan nan nan nan nan nan nan nan nan 0 0 0
nan nan nan nan nan nan nan nan nan nan nan nan nan nan nan nan nan nan nan nan nan nan nan nan nan nan nan nan nan nan nan nan nan nan nan nan nan nan nan nan nan nan nan nan nan nan nan nan nan nan nan nan nan nan nan nan nan nan nan nan nan nan nan nan nan nan nan nan nan nan nan nan nan nan nan nan nan nan nan nan nan nan nan nan nan 0
nan nan nan nan nan nan nan nan nan nan nan nan nan nan nan nan nan nan nan nan nan nan nan nan nan nan nan nan nan nan nan nan nan nan nan nan nan nan nan nan nan nan nan nan nan nan nan nan nan nan nan nan nan nan nan nan nan nan nan nan nan nan nan nan nan nan nan nan nan nan nan nan nan nan nan nan nan nan nan nan nan nan nan nan nan nan
nan nan nan nan nan nan nan nan nan nan nan nan nan nan nan nan nan nan nan nan nan nan nan nan nan nan nan nan nan nan nan nan nan nan nan nan nan nan nan nan nan nan nan nan nan nan nan nan nan nan nan nan nan nan nan nan nan nan nan nan nan nan nan nan nan nan nan nan nan nan nan nan nan nan nan nan nan nan nan nan nan nan nan nan nan nan
nan nan nan nan nan nan nan nan nan nan nan nan nan nan nan nan nan nan nan nan nan nan nan nan nan nan nan nan nan nan nan nan nan nan nan nan nan nan nan nan nan nan nan nan nan nan nan nan nan nan nan nan nan nan nan nan nan nan nan nan nan nan nan nan nan nan nan nan nan nan nan nan nan nan nan nan nan nan nan nan nan nan nan nan nan nan
nan nan nan nan nan nan nan nan nan nan nan nan nan nan nan nan nan nan nan nan nan nan nan nan nan nan nan nan nan nan nan nan nan nan nan nan nan nan nan nan nan nan nan nan nan nan nan nan nan nan nan nan nan nan nan nan nan nan nan nan nan nan nan nan nan nan nan nan nan nan nan nan nan nan nan nan nan nan nan nan nan nan nan nan nan nan
nan nan nan nan nan nan nan nan nan nan nan nan nan nan nan nan nan nan nan nan nan nan nan nan nan nan nan nan nan nan nan nan nan nan nan nan nan nan nan nan nan nan nan nan nan nan nan nan nan nan nan nan nan nan nan nan nan nan nan nan nan nan nan nan nan nan nan nan nan nan nan nan nan nan nan nan nan nan nan nan nan nan nan nan nan nan
nan nan nan nan nan nan nan nan nan nan nan nan nan nan nan nan nan nan nan nan nan nan nan nan nan nan nan nan nan nan nan nan nan nan nan nan nan nan nan nan nan nan nan nan nan nan nan nan nan nan nan nan nan nan nan nan nan nan nan nan nan nan nan nan nan nan nan nan nan nan nan nan nan nan nan nan nan nan nan nan nan nan nan nan nan nan
nan nan nan nan nan nan nan nan nan nan nan nan nan nan nan nan nan nan nan nan nan nan nan nan nan nan nan nan nan nan nan nan nan nan nan nan nan nan nan nan nan nan nan nan nan nan nan nan nan nan nan nan nan nan nan nan nan nan nan nan nan nan nan nan nan nan nan nan nan nan nan nan nan nan nan nan nan nan nan nan nan nan nan nan nan nan
nan nan nan nan nan nan nan nan nan nan nan nan nan nan nan nan nan nan nan nan nan nan nan nan nan nan nan nan nan nan nan nan nan nan nan nan nan nan nan nan nan nan nan nan nan nan nan nan nan nan nan nan nan nan nan nan nan nan nan nan nan nan nan nan nan nan nan nan nan nan nan nan nan nan nan nan nan nan nan nan nan nan nan nan nan nan
nan nan nan nan nan nan nan nan nan nan nan nan nan nan nan nan nan nan nan nan nan nan nan nan nan nan nan nan nan nan nan nan nan nan nan nan nan nan nan nan nan nan nan nan nan nan nan nan nan nan nan nan nan nan nan nan nan nan nan nan nan nan nan nan nan nan nan nan nan nan nan nan nan nan nan nan nan nan nan nan nan nan nan nan nan nan
nan nan nan nan nan nan nan nan nan nan nan nan nan nan nan nan nan nan nan nan nan nan nan nan nan nan nan nan nan nan nan nan nan nan nan nan nan nan nan nan nan nan nan nan nan nan nan nan nan nan nan nan nan nan nan nan nan nan nan nan nan nan nan nan nan nan nan nan nan nan nan nan nan nan nan nan nan nan nan nan nan nan nan nan nan nan
nan nan nan nan nan nan nan nan nan nan nan nan nan nan nan nan nan nan nan nan nan nan nan nan nan nan nan nan nan nan nan nan nan nan nan nan nan nan nan nan nan nan nan nan nan nan nan nan nan nan nan nan nan nan nan nan nan nan nan nan nan nan nan nan nan nan nan nan nan nan nan nan nan nan nan nan nan nan nan nan nan nan nan nan nan nan
nan nan nan nan nan nan nan nan nan nan nan nan nan nan nan nan nan nan nan nan nan nan nan nan nan nan nan nan nan nan nan nan nan nan nan nan nan nan nan nan nan nan nan nan nan nan nan nan nan nan nan nan nan nan nan nan nan nan nan nan nan nan nan nan nan nan nan nan nan nan nan nan nan nan nan nan nan nan nan nan nan nan nan nan nan nan
nan nan nan nan nan nan nan nan nan nan nan nan nan nan nan nan nan nan nan nan nan nan nan nan nan nan nan nan nan nan nan nan nan nan nan nan nan nan nan nan nan nan nan nan nan nan nan nan nan nan nan nan nan nan nan nan nan nan nan nan nan nan nan nan nan nan nan nan nan nan nan nan nan nan nan nan nan nan nan nan nan nan nan nan nan nan
nan nan nan nan nan nan nan nan nan nan nan nan nan nan nan nan nan nan nan nan nan nan nan nan nan nan nan nan nan nan nan nan nan nan nan nan nan nan nan nan nan nan nan nan nan nan nan nan nan nan nan nan nan nan nan nan nan nan nan nan nan nan nan nan nan nan nan nan nan nan nan nan nan nan nan nan nan nan nan nan nan nan nan nan nan nan
CIN
-0 -0 -0 -0 -0 -0 -0 -0 -0 -0 -0 -0 -0 -0 -0 nan nan nan nan nan nan nan nan -1 -1 -2 -3 -0 -0 -0 nan nan nan nan nan nan nan nan nan nan nan nan nan nan nan nan nan nan nan nan nan nan nan nan nan nan nan nan nan nan nan -0 -0 -0 -0 -0 -0 -0 -0 -0 -0 -0 nan nan nan nan nan nan nan nan nan nan nan nan nan nan
-0 -0 -0 -0 -0 -0 -0 -0 -0 -0 -0 -0 -0 -0 -0 nan nan nan nan nan nan nan nan -1 -1 -1 -3 -1 -0 -0 nan nan nan nan nan nan nan nan nan nan nan nan nan nan nan nan nan nan nan nan nan nan nan nan nan nan nan nan nan nan nan nan nan -0 -0 -0 -0 -0 -0 -0 -0 -0 nan nan nan nan nan nan nan nan nan nan nan nan nan nan
-0 -0 -0 -0 -0 -0 -0 -0 -1 -1 -0 -0 -0 -0 -0 nan nan nan nan nan nan nan nan nan nan -1 -2 -1 -0 -0 nan nan nan nan nan nan nan nan nan nan nan nan nan nan nan nan nan nan nan nan nan nan nan nan nan nan nan nan nan nan nan nan nan nan nan nan -0 -0 -0 -0 nan nan nan nan nan nan nan nan nan nan nan nan nan nan nan nan
-0 -0 -0 -0 -0 -0 -0 -0 -0 -0 -0 -0 -0 -0 -0 -0 nan nan nan nan nan nan nan nan nan -2 -2 -2 -0 -0 -0 nan nan nan nan nan nan nan nan nan nan nan nan nan nan nan nan nan nan nan nan nan nan nan nan nan nan nan nan nan nan nan nan nan nan nan nan nan nan nan nan nan nan nan nan nan nan nan nan nan nan nan nan nan nan nan
-0 -0 -0 -0 -0 -0 -0 -1 -0 -0 -0 -1 -0 -0 nan nan nan nan nan nan nan nan nan nan nan nan -1 -3 -0 -0 -0 nan nan nan nan nan nan nan nan nan nan nan nan nan nan nan nan nan nan nan nan nan nan nan nan nan nan nan nan nan nan nan nan nan nan nan nan nan nan nan nan nan nan nan nan nan nan nan nan nan nan nan nan nan nan nan
-0 nan nan -1 -1 -0 nan -0 -0 -0 -0 -0 nan nan nan nan nan nan nan nan nan nan nan nan nan nan nan -3 -0 -0 -0 -0 -0 -0 -0 nan nan nan nan nan nan nan nan nan nan nan nan nan nan nan nan nan nan nan nan nan nan nan nan nan nan nan nan nan nan nan nan nan nan nan nan nan nan nan nan nan nan nan nan nan nan nan nan nan nan nan
nan nan nan nan nan -1 -0 nan -0 -0 nan -0 nan nan nan nan nan nan nan nan nan nan nan nan nan nan nan -3 -0 -0 -0 -0 -0 -0 -0 nan nan nan nan nan nan nan nan nan nan nan nan nan nan nan nan nan nan nan nan nan nan nan nan nan nan nan nan nan nan nan nan nan nan nan nan nan nan nan nan nan nan nan nan nan nan nan nan nan nan nan
nan nan -1 nan nan -0 -0 -0 -1 -1 -1 nan nan nan -0 -0 nan nan nan nan nan nan nan nan nan nan nan nan -2 -2 nan nan nan nan nan nan nan nan nan nan nan nan nan nan nan nan nan nan nan nan nan nan nan nan nan nan nan nan nan nan nan nan nan nan nan nan nan nan nan nan nan nan nan nan nan nan nan nan nan nan nan nan nan nan nan nan
nan nan -1 nan nan nan nan -0 -0 -0 -1 nan nan nan nan nan nan nan nan nan nan nan nan nan nan nan nan nan -3 -3 nan nan nan nan nan nan nan nan nan nan nan nan nan nan nan nan nan nan nan nan nan nan nan nan nan nan nan nan nan nan nan nan nan nan nan nan nan nan nan nan nan nan nan nan nan nan nan nan nan nan nan nan nan nan nan nan
nan nan nan nan nan nan nan -0 -0 -0 -1 -2 nan nan nan nan nan nan nan nan nan nan nan nan nan nan nan nan -3 -3 nan nan -0 -0 -0 nan nan nan nan nan nan nan nan nan nan nan nan nan nan nan nan nan nan nan nan nan nan nan nan nan nan nan nan nan nan nan nan nan nan nan nan nan nan nan nan nan nan nan nan nan nan nan nan nan nan nan
nan nan nan -1 -1 nan nan nan nan nan nan -1 -1 -1 nan nan nan nan nan nan nan nan nan nan nan nan nan nan nan nan nan nan nan nan nan nan nan nan nan nan nan nan nan nan nan nan nan nan nan nan nan nan nan nan nan nan nan nan nan nan nan nan nan nan nan nan nan nan nan nan nan nan nan nan nan nan nan nan nan nan nan nan nan nan nan -0
nan nan nan nan nan nan nan nan nan nan nan nan -0 -0 -0 nan nan nan nan nan nan nan nan nan nan nan nan nan nan nan nan nan nan nan nan nan nan nan nan nan nan nan nan nan nan nan nan nan nan nan nan nan nan nan nan nan nan nan nan nan nan nan nan nan nan nan nan nan nan nan nan nan nan nan nan nan nan nan nan nan nan nan nan nan nan -1
nan nan nan nan nan nan nan nan nan nan nan nan nan nan -1 nan nan nan nan nan nan nan nan nan nan nan nan nan nan nan nan nan nan nan nan nan nan nan nan nan nan nan nan nan nan nan nan nan nan nan nan nan nan nan nan nan nan nan nan nan nan nan nan nan nan nan nan nan nan nan nan nan nan nan nan nan nan nan nan nan nan nan nan nan nan nan
nan nan nan nan nan nan -0 nan nan nan nan nan nan nan nan nan nan nan nan nan nan nan nan nan nan nan nan nan nan nan nan nan nan nan nan nan nan nan nan nan nan nan nan nan nan nan nan nan nan nan nan nan nan nan nan nan nan nan nan nan nan nan nan nan nan nan nan nan -0 -0 nan nan nan nan nan nan nan nan nan nan nan nan nan nan nan nan
nan nan nan -0 -0 -0 nan nan nan nan nan nan nan nan nan nan nan nan nan nan nan nan nan nan nan nan -0 nan nan nan nan nan nan nan nan nan nan nan nan nan nan nan nan nan nan nan nan nan nan nan nan nan nan nan nan nan nan nan nan nan nan nan nan nan nan nan nan nan -0 -0 -0 -0 -0 -0 -0 -0 nan nan nan nan nan nan nan nan nan nan
nan nan nan nan nan nan nan nan nan nan nan nan nan nan nan nan nan nan nan nan nan nan nan nan nan nan -0 nan nan nan nan nan nan nan nan nan nan nan nan nan nan nan nan nan nan nan nan nan nan nan nan nan nan nan nan nan nan nan nan nan nan nan nan nan nan nan nan nan nan nan -0 -0 -0 -0 -0 -0 nan nan nan nan nan nan nan nan nan nan
nan nan nan nan nan nan nan nan nan nan nan nan nan nan nan nan nan nan nan nan nan nan nan nan nan nan nan nan nan nan nan nan nan nan nan nan nan nan nan nan nan nan nan nan nan nan nan nan nan nan nan nan nan nan nan nan nan nan nan -0 -0 -0 nan nan nan nan nan nan -0 -0 -0 -0 -0 -0 -0 -0 nan nan nan nan nan nan nan nan nan nan
nan nan nan nan nan nan nan nan nan nan nan nan nan nan nan nan nan nan nan nan nan nan nan nan nan nan nan nan nan nan nan nan nan nan nan nan nan nan nan nan nan nan nan nan nan nan nan nan nan nan nan nan nan nan nan nan nan nan nan -0 -0 -0 nan nan nan nan -0 -0 -0 -0 -0 -0 -0 -0 -0 -0 nan nan nan nan nan nan nan nan nan nan
nan nan nan nan nan nan nan nan nan nan nan nan nan nan nan nan nan nan nan nan nan nan nan nan nan nan nan nan nan nan nan nan nan nan nan nan nan nan nan nan nan nan nan nan nan nan nan nan nan nan nan nan nan nan nan nan nan nan -0 -0 -0 -0 nan nan nan nan -0 -0 -0 -0 -0 -0 -0 -0 -0 -0 nan nan nan nan nan nan nan nan nan nan
nan nan nan nan nan nan nan nan nan nan nan nan nan nan nan nan nan nan nan nan nan nan nan nan nan nan nan nan nan nan nan nan nan nan nan nan nan nan nan nan nan nan nan nan nan nan nan nan nan nan nan nan nan nan nan nan nan -0 -0 -0 -0 nan nan nan nan nan -0 -0 -0 -0 -0 -0 -0 -0 -0 -0 -0 -0 nan nan nan nan nan nan nan nan
-8 nan nan nan nan nan nan nan nan nan nan nan nan nan nan nan nan nan nan nan nan nan nan nan nan nan nan nan nan nan nan nan nan nan nan nan nan nan nan nan nan nan nan nan nan nan nan nan nan nan nan nan nan nan nan -0 -0 -0 -0 -0 -0 nan nan nan nan -0 -0 -0 -0 -0 -0 -0 -0 -0 -0 -0 -0 -0 -0 nan nan nan nan nan nan nan
-6 -4 -6 -6 -6 -7 -8 nan nan nan nan nan nan nan nan nan nan nan nan nan nan nan nan nan nan nan nan nan nan nan nan nan nan nan nan nan nan nan nan nan nan nan nan nan nan nan nan nan nan nan nan nan nan nan nan -0 -0 -0 -0 -0 -0 nan nan -0 -0 -0 -0 -0 -0 -0 -0 -0 -0 -0 -0 -0 -0 -0 -0 -0 -0 -0 -0 -0 -0 nan
nan -6 nan -7 -7 nan nan nan nan nan nan nan nan nan nan nan nan nan nan nan nan nan nan nan nan nan nan nan nan nan nan nan nan nan nan nan nan nan nan nan nan nan nan nan nan nan nan nan nan nan nan nan nan nan nan -0 -0 -0 -0 -0 -0 -0 -0 -0 -0 -0 -0 -0 -0 -0 -0 -0 -0 -0 -0 nan nan nan nan -0 -0 -0 -0 -0 -0 -0
nan nan nan nan nan nan nan nan nan nan nan nan nan nan nan nan nan nan nan nan nan nan nan nan nan nan nan nan nan nan nan nan nan nan nan nan nan nan nan nan nan nan nan nan nan nan nan nan nan nan nan nan nan nan nan -0 -0 -0 -0 -0 -0 -0 -0 -0 -0 -0 -0 -0 -0 -0 -0 -0 -0 -0 -0 nan nan nan nan -0 -0 -0 -0 -0 -0 -0
nan nan nan nan nan nan nan nan nan nan nan nan nan nan nan nan nan nan nan nan nan nan nan nan nan nan nan nan nan nan nan nan nan nan nan nan nan nan nan nan nan nan nan nan nan nan nan nan nan nan nan nan nan nan nan -0 -0 -0 -0 -0 -0 -0 -0 -0 -0 -0 -0 -0 -0 -0 -0 -0 -0 -0 -0 nan nan nan nan nan nan nan nan nan nan nan
nan nan nan nan nan nan nan nan nan nan nan nan nan nan nan nan nan nan nan nan nan nan nan nan nan nan nan nan nan nan nan nan nan nan nan nan nan nan nan nan nan nan nan nan nan nan nan nan nan nan nan nan nan nan -0 -0 -0 -0 -0 -0 -0 -0 -0 -0 -0 -0 -0 -0 -0 -0 -0 -0 -0 -0 -0 nan nan nan nan nan nan nan nan nan nan nan
nan nan nan nan nan nan nan nan nan nan nan nan nan nan nan nan nan nan nan nan nan nan nan nan nan nan nan nan nan nan nan nan nan nan nan nan nan nan nan nan nan nan nan nan nan nan nan nan nan nan nan nan nan nan -0 -0 -0 -0 -0 -0 -0 -0 -0 -0 -0 -0 -0 -0 -0 -0 -0 -0 -0 -0 nan nan nan nan nan nan nan nan nan nan nan nan
nan nan nan nan nan nan nan -0 -0 -0 -0 nan nan nan nan nan nan nan nan nan nan nan nan nan nan nan nan nan nan nan nan nan nan nan nan nan nan nan nan nan nan nan nan nan nan nan nan nan nan nan nan nan nan nan -4 -0 -0 -0 -0 -0 -0 -0 -0 -0 -0 -0 -0 -0 -0 -0 -0 -0 -0 -0 -0 nan nan nan -0 nan nan nan nan nan nan nan
nan nan nan nan nan nan -0 -0 -0 -0 -0 -0 nan nan nan nan nan nan nan nan nan nan nan nan nan nan nan nan nan nan nan nan nan nan nan nan nan nan nan nan nan nan nan nan nan nan nan nan nan nan nan nan nan nan nan -1 -1 -0 -0 -0 -0 -0 -0 -0 -0 -0 -0 -0 nan nan nan -0 -0 -0 -0 -0 -0 -0 -0 -0 -0 nan nan nan nan nan
-0 -0 -0 -0 -0 -0 -0 -0 -0 -0 -0 -0 -0 -0 nan nan nan nan nan nan nan nan nan nan nan nan nan nan nan nan nan nan nan nan nan nan nan nan nan nan nan nan nan nan nan nan nan nan nan nan nan nan nan nan nan nan nan nan -10 -0 -0 -0 -0 -0 -0 -0 -0 nan nan nan nan nan nan nan nan -0 -0 -0 -0 -0 -0 nan nan nan nan nan
nan nan -0 -0 -0 -0 -2 -4 -0 -0 -0 -0 -0 -0 nan nan nan nan nan nan nan nan nan nan nan nan nan nan nan nan nan nan nan nan nan nan nan nan nan nan nan nan nan nan nan nan nan nan nan nan nan nan nan nan nan nan nan nan nan nan nan nan nan nan nan nan nan nan nan nan nan nan nan nan nan nan -0 -0 -0 -0 -0 -3 -21 nan nan nan
nan nan nan nan nan nan nan nan nan nan nan nan nan nan nan nan nan nan nan nan nan nan nan nan nan nan nan nan nan nan nan nan nan nan nan nan nan nan nan nan nan nan nan nan nan nan nan nan nan nan nan nan nan nan nan nan nan nan nan nan nan nan nan nan nan nan nan nan nan nan nan nan nan nan nan nan nan nan nan nan nan nan nan nan nan nan
nan nan nan nan nan nan nan nan nan nan nan nan nan nan nan nan nan nan nan nan nan nan nan nan nan nan nan nan nan nan nan nan nan nan nan nan nan nan nan nan nan nan nan nan nan nan nan nan nan nan nan nan nan nan nan nan nan nan nan nan nan nan nan nan nan nan nan nan nan nan nan nan nan nan nan nan nan nan nan nan nan nan nan nan nan nan
nan nan nan nan nan nan nan nan nan nan nan nan nan nan nan nan nan nan nan nan nan nan nan nan nan nan nan nan nan nan nan nan nan nan nan nan nan nan nan nan nan nan nan nan nan nan nan nan nan nan nan nan nan nan nan nan nan nan nan nan nan nan nan nan nan nan nan nan nan nan nan nan nan nan nan nan nan nan nan nan nan -0 nan nan nan nan
nan nan nan nan nan nan nan nan nan nan nan nan nan nan nan nan nan nan nan nan nan nan nan nan nan nan nan nan nan nan nan nan nan nan nan nan nan nan nan nan nan nan nan nan nan nan nan nan nan nan nan nan nan nan nan nan nan nan nan nan nan nan nan nan nan nan nan nan nan nan nan nan nan nan nan nan nan nan nan nan nan nan -0 -0 -0 -7
nan nan nan nan nan nan nan nan nan nan nan nan nan nan nan nan nan nan nan nan nan nan nan nan nan nan nan nan nan nan nan nan nan nan nan nan nan nan nan nan nan nan nan nan nan nan nan nan nan nan nan nan nan nan nan nan nan nan nan nan nan nan nan nan nan nan nan nan nan nan nan nan nan nan nan nan nan nan nan nan nan nan nan -0 -0 -1
nan nan nan nan nan nan nan nan nan nan nan nan nan nan nan nan nan nan nan nan nan nan nan nan nan nan nan nan nan nan nan nan nan nan nan nan nan nan nan nan nan nan nan nan nan nan nan nan nan nan nan nan nan nan nan nan nan nan nan nan nan nan nan nan nan nan nan nan nan nan nan nan nan nan nan nan nan nan nan nan nan nan nan nan nan -0
nan nan nan nan nan nan nan nan nan nan nan nan nan nan nan nan nan nan nan nan nan nan nan nan nan nan nan nan nan nan nan nan nan nan nan nan nan nan nan nan nan nan nan nan nan nan nan nan nan nan nan nan nan nan nan nan nan nan nan nan nan nan nan nan nan nan nan nan nan nan nan nan nan nan nan nan nan nan nan nan nan nan nan nan nan nan
nan nan nan nan nan nan nan nan nan nan nan nan nan nan nan nan nan nan nan nan nan nan nan nan nan nan nan nan nan nan nan nan nan nan nan nan nan nan nan nan nan nan nan nan nan nan nan nan nan nan nan nan nan nan nan nan nan nan nan nan nan nan nan nan nan nan nan nan nan nan nan nan nan nan nan nan nan nan nan nan nan nan nan nan nan nan
nan nan nan nan nan nan nan nan nan nan nan nan nan nan nan nan nan nan nan nan nan nan nan nan nan nan nan nan nan nan nan nan nan nan nan nan nan nan nan nan nan nan nan nan nan nan nan nan nan nan nan nan nan nan nan nan nan nan nan nan nan nan nan nan nan nan nan nan nan nan nan nan nan nan nan nan nan nan nan nan nan nan nan nan nan nan
nan nan nan nan nan nan nan nan nan nan nan nan nan nan nan nan nan nan nan nan nan nan nan nan nan nan nan nan nan nan nan nan nan nan nan nan nan nan nan nan nan nan nan nan nan nan nan nan nan nan nan nan nan nan nan nan nan nan nan nan nan nan nan nan nan nan nan nan nan nan nan nan nan nan nan nan nan nan nan nan nan nan nan nan nan nan
nan nan nan nan nan nan nan nan nan nan nan nan nan nan nan nan nan nan nan nan nan nan nan nan nan nan nan nan nan nan nan nan nan nan nan nan nan nan nan nan nan nan nan nan nan nan nan nan nan nan nan nan nan nan nan nan nan nan nan nan nan nan nan nan nan nan nan nan nan nan nan nan nan nan nan nan nan nan nan nan nan nan nan nan nan nan
nan nan nan nan nan nan nan nan nan nan nan nan nan nan nan nan nan nan nan nan nan nan nan nan nan nan nan nan nan nan nan nan nan nan nan nan nan nan nan nan nan nan nan nan nan nan nan nan nan nan nan nan nan nan nan nan nan nan nan nan nan nan nan nan nan nan nan nan nan nan nan nan nan nan nan nan nan nan nan nan nan nan nan nan nan nan
nan nan nan nan nan nan nan nan nan nan nan nan nan nan nan nan nan nan nan nan nan nan nan nan nan nan nan nan nan nan nan nan nan nan nan nan nan nan nan nan nan nan nan nan nan nan nan nan nan nan nan nan nan nan nan nan nan nan nan nan nan nan nan nan nan nan nan nan nan nan nan nan nan nan nan nan nan nan nan nan nan nan nan nan nan nan
nan nan nan nan nan nan nan nan nan nan nan nan nan nan nan nan nan nan nan nan nan nan nan nan nan nan nan nan nan nan nan nan nan nan nan nan nan nan nan nan nan nan nan nan nan nan nan nan nan nan nan nan nan nan nan nan nan nan nan nan nan nan nan nan nan nan nan nan nan nan nan nan nan nan nan nan nan nan nan nan nan nan nan nan nan nan
nan nan nan nan nan nan nan nan nan nan nan nan nan nan nan nan nan nan nan nan nan nan nan nan nan nan nan nan nan nan nan nan nan nan nan nan nan nan nan nan nan nan nan nan nan nan nan nan nan nan nan nan nan nan nan nan nan nan nan nan nan nan nan nan nan nan nan nan nan nan nan nan nan nan nan nan nan nan nan nan nan nan nan nan nan nan
nan nan nan nan nan nan nan nan nan nan nan nan nan nan nan nan nan nan nan nan nan nan nan nan nan nan nan nan nan nan nan nan nan nan nan nan nan nan nan nan nan nan nan nan nan nan nan nan nan nan nan nan nan nan nan nan nan nan nan nan nan nan nan nan nan nan nan nan nan nan nan nan nan nan nan nan nan nan nan nan nan nan nan nan nan nan
nan nan nan nan nan nan nan nan nan nan nan nan nan nan nan nan nan nan nan nan nan nan nan nan nan nan nan nan nan nan nan nan nan nan nan nan nan nan nan nan nan nan nan nan nan nan nan nan nan nan nan nan nan nan nan nan nan nan nan nan nan nan nan nan nan nan nan nan nan nan nan nan nan nan nan nan nan nan nan nan nan nan nan nan nan nan
nan nan nan nan nan nan nan nan nan nan nan nan nan nan nan nan nan nan nan nan nan nan nan nan nan nan nan nan nan nan nan nan nan nan nan nan nan nan nan nan nan nan nan nan nan nan nan nan nan nan nan nan nan nan nan nan nan nan nan nan nan nan nan nan nan nan nan nan nan nan nan nan nan nan nan nan nan nan nan nan nan nan nan nan nan nan
nan nan nan nan nan nan nan nan nan nan nan nan nan nan nan nan nan nan nan nan nan nan nan nan nan nan nan nan nan nan nan nan nan nan nan nan nan nan nan nan nan nan nan nan nan nan nan nan nan nan nan nan nan nan nan nan nan nan nan nan nan nan nan nan nan nan nan nan nan nan nan nan nan nan nan nan nan nan nan nan nan nan nan nan nan nan
nan nan nan nan nan nan nan nan nan nan nan nan nan nan nan nan nan nan nan nan nan nan nan nan nan nan nan nan nan nan nan nan nan nan nan nan nan nan nan nan nan nan nan nan nan nan nan nan nan nan nan nan nan nan nan nan nan nan nan nan nan nan nan nan nan nan nan nan nan nan nan nan nan nan nan nan nan nan nan nan nan nan nan nan nan nan
Wind_Speed
2 2 3 4 4 3 3 4 5 4 4 3 3 3 3 3 3 3 3 3 3 4 4 5 5 6 8 11 12 13 13 12 12 11 11 10 10 10 9 9 9 8 8 8 8 8 8 8 8 8 8 8 8 9 9 9 9 9 9 8 8 7 7 6 6 5 5 6 6 6 6 7 6 6 6 6 6 6 7 6 6 6 5 5 5 5
2 2 2 3 4 3 2 4 4 4 4 4 3 3 3 3 3 2 3 3 3 3 3 4 5 6 7 9 11 12 12 12 12 11 11 11 10 10 9 9 9 8 8 8 8 8 7 7 7 7 8 8 8 8 8 8 9 8 8 8 8 8 7 7 7 7 7 7 7 7 7 6 6 6 6 6 6 6 6 6 6 5 5 5 5 5
2 2 2 3 3 3 2 4 4 4 5 4 4 4 4 4 3 2 2 2 2 2 2 2 4 5 6 7 9 11 12 12 12 11 11 11 10 10 9 9 9 8 8 8 8 7 7 7 7 7 7 7 8 8 8 8 8 8 7 7 7 7 7 7 7 8 8 8 7 7 6 6 6 5 5 5 5 6 6 5 5 5 5 5 5 5
3 2 2 2 2 2 2 3 3 3 4 4 4 4 4 3 3 2 2 2 2 2 2 2 3 4 5 6 8 10 11 12 12 11 11 11 10 10 10 9 9 8 8 8 7 7 7 7 7 7 7 7 7 7 7 7 7 7 6 6 6 6 6 6 6 7 7 7 6 6 6 5 5 5 5 5 5 5 5 5 4 4 4 4 4 5
3 3 3 2 2 2 2 3 3 3 4 4 4 4 4 3 2 2 2 2 2 2 2 2 2 3 3 4 6 9 11 12 12 11 11 10 10 10 10 9 9 8 8 8 7 7 7 6 6 6 6 7 7 7 7 6 6 6 5 5 5 5 5 5 5 5 5 5 5 5 5 5 4 5 5 5 5 5 4 4 4 4 4 4 4 4
3 3 3 2 2 2 2 2 3 3 3 3 4 4 3 3 2 2 1 2 2 2 2 2 2 2 2 3 6 9 11 11 11 11 11 10 10 10 9 9 9 8 8 7 7 7 6 6 6 6 6 6 6 6 6 6 5 5 4 4 4 4 4 4 4 4 4 4 4 4 4 4 4 4 5 5 4 4 4 4 3 3 3 3 4 4
3 3 3 2 2 2 2 2 2 3 3 3 3 3 3 2 2 2 2 1 2 2 2 2 2 2 2 3 6 9 10 11 11 11 10 10 10 10 9 9 9 8 8 7 7 6 6 6 6 6 6 6 6 6 6 5 5 5 4 4 4 3 3 3 4 4 4 3 3 3 3 4 4 4 4 4 4 4 4 3 3 3 3 3 3 3
3 3 3 2 2 2 2 1 2 2 3 3 3 3 2 2 2 2 2 1 1 1 2 2 2 2 2 2 4 7 8 8 9 9 9 9 9 9 9 9 9 8 8 7 7 6 6 5 5 5 5 5 5 5 5 5 4 4 4 4 4 4 4 4 3 3 3 3 3 3 3 3 3 4 4 4 4 4 4 3 3 3 3 3 3 3
4 4 3 3 3 3 2 2 2 2 3 3 3 3 3 2 2 2 2 1 1 1 1 2 2 2 1 1 3 5 7 7 7 7 7 7 7 7 8 8 8 8 7 7 6 6 5 5 5 5 5 5 5 5 4 4 4 4 4 4 4 4 4 4 4 3 3 3 3 3 3 3 3 3 4 4 4 4 4 3 3 3 3 3 3 2
4 4 3 3 3 3 3 2 2 3 3 3 3 3 3 3 3 3 2 1 1 0 1 2 2 2 1 1 2 4 6 6 6 6 6 6 7 7 7 7 7 7 7 7 6 6 5 5 4 4 4 4 4 4 4 3 3 3 4 4 4 4 4 4 4 3 3 3 2 2 2 3 3 3 3 4 3 3 3 3 3 3 3 3 3 3
3 3 3 3 2 2 2 2 2 2 3 3 2 2 2 3 4 4 4 3 2 1 1 1 2 2 1 1 2 3 4 4 4 5 5 6 7 7 7 7 7 7 7 6 6 5 5 4 4 4 4 4 3 3 3 2 2 3 3 3 4 4 4 4 3 3 3 3 2 2 2 2 3 3 3 3 3 3 3 3 3 3 3 4 4 3
3 3 2 3 2 2 2 2 2 2 2 2 2 3 3 3 4 4 5 4 4 3 2 1 1 1 1 1 2 3 4 4 4 3 3 4 5 5 5 5 5 6 6 6 5 5 5 4 4 3 3 3 3 2 2 2 2 2 2 3 3 3 3 3 3 3 3 2 2 2 2 2 3 3 3 3 3 3 3 3 3 3 4 4 4 4
3 2 2 3 3 2 2 3 2 2 2 3 4 4 4 4 4 4 4 4 4 4 3 2 1 1 2 1 1 2 4 4 3 3 2 2 2 2 2 3 3 3 3 3 3 3 4 4 3 2 2 2 2 2 1 1 1 1 1 2 2 2 2 2 2 2 2 2 2 2 2 3 3 3 4 4 4 4 3 3 3 3 4 4 5 5
3 3 3 3 3 3 3 3 4 4 4 4 5 5 4 4 4 4 3 4 4 4 3 3 2 1 1 1 1 0 3 4 4 3 2 2 1 1 1 2 2 2 2 2 2 3 3 3 2 2 1 2 2 2 2 1 1 1 1 1 1 1 2 2 2 2 2 2 2 2 2 3 3 4 4 4 4 4 4 3 3 4 4 5 5 6
3 3 3 3 3 3 3 4 4 4 5 5 4 4 3 4 4 4 4 4 4 4 4 3 2 2 0 0 1 1 1 3 4 4 3 2 1 1 1 2 2 2 1 2 2 2 3 2 2 2 2 2 2 2 1 2 2 2 1 1 1 1 1 1 1 1 1 1 1 1 2 3 3 4 4 4 4 4 4 4 4 4 4 5 5 6
3 4 4 4 4 4 4 4 4 4 4 4 4 3 4 5 5 5 4 5 4 4 4 4 3 2 1 1 1 1 1 3 4 4 4 3 2 1 0 1 2 2 1 2 2 2 2 1 1 1 2 2 1 0 0 1 2 2 2 2 2 2 1 1 1 0 0 1 1 1 2 3 3 4 4 4 4 4 4 4 4 4 4 4 5 6
3 3 4 4 4 4 5 5 5 4 4 4 4 3 4 5 5 5 5 4 4 4 4 4 4 3 3 2 2 3 3 3 4 4 4 4 2 1 0 1 2 2 2 2 2 2 2 1 1 1 2 2 2 0 1 1 1 2 2 2 2 2 1 1 1 1 1 1 2 2 2 2 3 3 4 4 4 4 4 3 3 3 4 4 5 5
3 4 4 4 4 4 5 5 5 5 4 4 4 3 3 3 4 4 4 4 4 4 4 4 4 4 3 3 4 4 4 4 4 4 4 4 3 2 0 1 1 2 2 2 2 2 2 1 1 1 2 2 1 0 1 1 1 2 3 3 2 2 2 1 1 2 2 2 3 3 2 3 3 3 3 3 3 3 3 3 3 3 3 3 4 4
3 4 4 4 3 3 4 5 5 5 5 4 4 4 4 3 4 4 4 4 4 5 5 4 4 3 3 3 4 6 6 5 4 4 4 4 3 2 1 1 1 2 2 2 2 2 2 2 2 2 2 1 1 1 2 2 2 2 3 3 3 2 2 1 1 2 3 3 3 3 3 3 3 3 3 3 3 3 3 3 3 3 3 3 3 4
3 3 4 3 3 3 4 5 5 6 6 6 5 5 4 4 4 4 4 4 4 4 3 3 3 3 2 3 4 5 6 5 4 4 4 3 3 3 2 2 2 2 2 2 2 2 2 2 2 2 2 2 2 2 3 2 2 3 3 3 3 3 2 2 2 2 3 4 4 4 4 4 3 3 3 3 3 3 3 3 3 2 2 3 3 3
3 3 3 3 3 3 3 4 5 6 7 7 6 5 5 5 5 5 5 5 4 4 4 4 3 2 2 3 4 5 7 6 5 4 3 3 3 2 2 2 2 2 2 2 2 2 2 2 2 2 3 3 3 3 3 3 3 3 3 3 3 3 3 2 2 3 3 4 4 4 4 4 4 3 3 3 3 3 3 3 3 3 2 2 2 2
2 2 3 3 3 3 2 3 5 7 8 8 7 6 5 5 5 5 5 5 5 5 4 2 1 2 3 3 3 4 5 5 5 4 3 3 3 3 2 2 2 2 2 2 2 2 2 2 2 2 3 4 3 3 3 3 3 4 4 4 4 4 3 3 3 3 3 4 4 4 4 4 4 3 3 3 3 2 2 3 3 3 3 2 2 2
2 2 1 2 1 0 1 3 4 6 7 7 7 6 5 5 5 5 5 5 4 4 3 3 3 3 4 3 3 2 1 1 1 2 3 3 3 3 2 2 2 2 2 2 2 2 2 2 2 2 3 4 4 4 4 4 4 4 4 4 4 4 4 4 3 3 3 4 4 4 4 4 4 3 3 3 3 2 2 2 2 3 3 2 2 1
1 1 1 1 2 2 2 3 4 4 5 5 4 3 3 4 3 3 3 3 4 4 4 4 4 4 3 3 3 2 1 1 1 1 2 3 3 3 2 2 2 2 2 2 2 2 2 2 2 2 3 4 4 4 5 5 5 5 5 5 5 5 4 4 4 4 4 4 4 4 4 4 4 3 3 3 3 2 2 2 2 2 2 2 2 1
1 2 2 2 2 3 3 4 5 5 5 4 4 3 3 3 3 3 3 4 4 5 5 4 4 3 3 3 2 2 1 0 1 1 1 2 2 2 2 2 2 2 2 2 2 2 2 2 2 2 2 3 4 5 5 5 5 5 6 5 5 5 5 4 4 4 4 4 4 4 4 3 3 3 3 3 3 2 2 2 2 2 2 2 1 1
3 3 3 3 4 4 5 6 8 8 8 6 5 4 4 4 5 4 4 4 4 5 5 4 4 3 3 2 2 2 1 1 0 1 0 2 3 2 2 2 2 2 3 2 2 2 2 2 2 2 2 3 4 5 6 6 6 6 6 6 6 5 5 5 5 4 4 4 4 3 3 3 3 3 3 3 2 2 2 2 2 1 1 1 1 1
6 6 6 5 5 6 7 8 10 11 12 10 9 8 6 5 5 5 4 4 5 5 5 5 4 3 3 2 2 2 2 2 1 1 1 1 3 3 2 2 2 2 3 2 2 2 2 2 2 3 2 2 3 3 4 5 6 6 6 6 6 6 5 5 5 5 4 4 4 3 3 3 3 3 3 2 2 2 2 2 2 1 1 1 1 1
8 7 7 6 6 7 7 9 10 11 12 13 13 11 8 6 5 5 5 5 5 5 5 5 4 4 3 3 3 2 2 2 2 1 1 1 2 3 2 2 2 2 3 2 2 1 1 2 2 2 3 2 2 2 2 3 4 5 6 6 6 6 6 5 5 5 4 4 3 3 3 3 3 3 3 2 2 2 2 2 2 2 1 1 1 1
9 9 8 8 7 7 8 8 9 11 12 13 13 11 8 5 5 5 5 5 5 5 5 5 4 4 3 3 3 2 2 2 2 2 1 1 2 3 2 2 2 2 3 2 2 1 0 1 1 2 3 3 3 2 2 3 3 4 4 5 5 5 5 5 4 4 4 3 3 3 2 2 2 2 2 2 2 2 2 2 2 2 2 2 2 2
8 8 8 8 7 7 7 6 7 9 11 12 11 9 6 4 3 3 4 4 5 5 5 4 4 4 4 3 3 2 2 2 3 3 2 2 2 3 3 2 2 2 3 2 2 1 1 1 1 2 2 3 3 3 2 2 2 3 3 4 4 5 5 4 4 3 3 2 2 2 2 2 2 2 2 2 2 2 2 2 2 2 2 2 2 2
6 6 6 6 6 6 5 5 5 6 8 8 7 5 3 2 1 2 3 4 4 4 4 4 4 4 4 4 3 3 2 3 4 4 3 2 2 3 3 3 3 2 2 2 2 2 2 2 2 2 3 3 3 3 3 2 2 2 2 3 3 4 4 4 3 2 2 2 1 1 2 2 2 1 1 1 1 2 2 2 2 2 1 1 2 1
5 5 5 5 5 4 4 4 4 4 4 4 4 3 2 2 2 2 2 2 3 3 3 3 4 4 4 3 3 2 2 3 4 6 5 3 2 2 3 3 3 2 2 1 1 1 2 2 2 2 2 2 3 3 3 3 2 2 2 2 2 3 4 3 3 2 2 2 2 2 2 2 2 2 2 2 2 2 2 2 2 2 2 1 1 1
4 4 4 4 4 4 3 3 3 3 3 3 3 2 2 3 3 3 2 1 1 1 2 3 4 4 3 3 2 2 2 2 5 7 6 3 2 2 3 3 3 3 2 1 1 1 0 2 2 2 2 2 2 3 3 3 3 2 2 2 2 2 3 3 3 2 3 3 3 3 3 3 3 3 3 3 3 3 3 3 3 3 2 2 1 1
5 4 4 4 4 4 3 3 3 3 3 3 3 3 2 2 3 3 3 3 2 2 2 2 3 3 3 3 2 2 2 2 5 7 7 4 3 3 3 3 3 3 3 2 1 1 0 2 2 2 2 2 2 2 3 3 3 2 2 2 1 2 2 3 2 2 2 2 2 3 3 3 4 4 4 4 4 4 4 4 4 4 4 3 2 1
4 4 4 4 4 4 4 4 3 3 3 3 3 3 3 3 3 3 3 3 3 3 3 2 2 2 2 2 3 3 3 3 5 7 6 4 3 3 3 3 3 4 4 3 2 2 1 2 3 3 3 2 2 2 3 3 3 3 2 2 1 1 1 2 2 1 1 1 1 2 2 2 3 4 4 4 4 5 5 5 5 5 5 4 3 2
4 4 4 4 4 4 4 4 4 3 3 3 3 3 3 3 3 3 3 3 3 4 4 4 4 3 2 2 2 3 3 4 5 6 6 4 3 3 3 3 3 4 4 3 3 2 2 2 3 3 4 3 2 2 2 2 3 3 2 2 2 2 1 1 1 1 1 1 1 2 2 2 2 3 3 4 4 4 4 4 4 5 5 4 4 3
4 4 4 4 4 4 4 4 4 3 3 3 3 3 3 3 3 3 3 3 3 4 4 5 5 5 5 4 3 3 3 4 5 5 5 3 3 3 3 3 3 4 4 4 3 3 3 3 3 3 3 3 2 2 2 3 3 2 2 3 3 2 2 2 2 2 1 2 2 2 2 2 2 2 2 3 3 3 3 4 4 5 5 5 4 4
4 4 4 4 4 4 4 4 3 3 3 3 3 3 3 3 3 3 3 3 4 4 4 4 5 6 8 7 6 5 4 4 4 4 4 3 2 2 2 3 3 4 4 4 3 3 3 3 3 3 3 2 2 3 3 3 3 3 3 3 2 2 2 2 2 2 2 2 2 2 2 2 2 1 1 2 2 2 2 3 4 5 5 5 5 5
3 3 4 4 4 4 4 4 4 3 3 3 3 3 4 4 4 4 4 4 4 4 5 5 4 5 6 6 7 7 6 5 4 4 4 3 1 1 2 3 3 3 3 3 3 3 3 3 3 3 3 2 2 3 3 3 3 3 3 2 2 2 2 3 3 3 2 2 2 2 2 2 2 1 1 1 2 2 2 2 3 4 4 3 4 5
3 3 3 4 3 3 4 4 4 4 4 4 4 4 4 4 4 4 4 4 4 4 5 5 5 4 5 6 6 6 6 5 5 5 4 3 2 1 1 2 3 3 2 2 2 2 3 2 2 2 3 3 3 3 2 2 3 3 3 2 2 2 3 3 3 3 3 3 3 3 2 2 2 2 2 2 2 2 2 2 2 3 3 2 2 2
3 3 3 3 3 4 4 4 4 4 4 4 3 3 3 3 3 3 3 3 3 3 4 4 4 4 4 4 4 5 5 5 4 4 3 3 3 2 1 1 2 2 2 2 1 1 2 1 1 1 2 2 3 3 3 3 4 4 4 3 2 3 3 4 4 3 3 3 3 3 3 3 3 3 3 3 3 2 2 2 2 2 2 2 1 1
4 4 4 4 4 4 4 4 4 4 4 4 3 3 3 3 3 3 3 3 2 2 2 2 3 3 3 3 3 3 4 4 3 3 3 3 3 3 2 1 2 2 2 2 2 1 1 1 1 1 1 2 2 2 2 3 4 4 4 3 3 3 3 4 4 4 3 3 3 3 4 3 3 3 3 3 3 2 2 2 2 2 2 1 1 1
4 4 4 4 4 4 5 5 4 4 3 3 3 3 2 3 3 3 3 3 3 3 2 2 3 3 3 3 3 3 3 3 2 2 2 2 3 3 2 1 2 2 2 2 2 2 1 1 1 1 1 2 2 2 2 3 3 3 3 3 3 2 2 2 3 3 3 3 3 3 3 2 2 2 2 2 2 2 2 2 3 3 3 2 2 2
3 4 4 4 4 4 4 4 3 3 3 3 3 3 2 3 3 3 3 3 3 3 3 2 3 3 3 3 3 3 3 2 2 2 2 2 2 2 3 2 1 1 2 2 2 2 2 1 1 1 1 1 1 1 2 2 3 3 3 3 3 3 2 2 3 3 3 3 3 3 3 2 2 2 2 2 1 1 2 2 2 3 3 3 3 2
4 4 4 4 4 4 4 3 3 3 3 3 3 3 3 3 3 3 3 3 3 3 3 3 3 3 2 3 3 3 3 2 2 2 2 1 2 2 2 2 1 1 1 1 2 2 2 2 2 1 1 1 1 1 1 2 2 3 3 4 3 3 2 2 3 3 3 3 3 3 3 3 2 2 1 1 2 2 2 2 3 3 3 3 3 3
4 4 4 4 4 4 4 4 4 3 3 3 3 3 3 3 3 3 3 3 3 3 3 3 3 2 3 3 3 3 3 3 3 2 2 1 1 0 1 1 2 2 2 1 1 1 1 1 2 2 2 2 1 1 2 2 2 2 3 4 3 3 2 1 2 3 3 3 3 3 3 3 2 2 2 2 2 2 3 3 3 4 4 3 3 3
4 4 4 4 4 4 4 4 4 3 3 3 3 3 3 3 3 3 3 3 3 3 3 2 2 2 3 3 3 3 3 3 3 3 3 3 2 2 1 1 2 2 2 2 2 2 2 2 1 1 2 2 2 2 3 3 3 3 3 3 3 3 2 2 2 2 3 3 3 3 4 3 2 2 2 2 2 2 3 3 3 4 4 4 4 4
5 5 5 4 4 4 4 4 4 3 3 3 3 3 3 3 3 3 3 3 3 3 3 3 2 2 3 3 3 4 4 4 4 4 4 3 3 3 2 2 1 1 1 2 2 2 1 1 1 1 1 2 2 3 3 3 3 3 3 3 3 3 3 3 3 3 3 3 3 3 4 3 3 2 2 2 2 2 2 3 3 4 4 4 4 4
5 5 5 5 4 4 4 4 4 4 4 4 4 3 3 3 4 4 3 3 3 3 3 3 3 3 3 3 3 4 5 4 4 4 4 4 3 3 3 2 2 2 1 1 1 0 1 1 2 3 3 3 2 2 3 3 3 3 3 3 3 3 3 2 3 3 3 3 3 3 3 3 3 2 2 2 2 2 2 2 3 3 4 4 4 4
5 5 5 5 5 5 5 5 5 5 5 5 4 4 3 3 3 3 3 3 3 3 3 3 3 3 3 3 3 4 4 4 4 4 4 4 4 3 3 3 3 2 2 2 1 1 1 1 3 4 6 6 5 4 3 2 3 3 3 3 2 2 2 2 2 3 3 3 3 3 2 2 2 2 2 2 2 2 2 2 2 3 3 4 4 4
5 5 5 5 5 5 5 5 5 5 5 5 5 5 4 4 3 3 3 3 3 3 3 3 3 3 3 3 3 4 4 4 4 4 4 4 4 4 4 3 3 3 2 2 2 2 2 2 2 3 6 9 10 8 4 3 2 2 3 3 2 2 2 2 2 3 4 3 3 3 2 2 1 2 2 2 2 2 2 2 2 3 3 3 4 4
Wind_Direction
105 114 119 131 135 138 149 151 145 136 133 128 118 105 92 86 80 73 71 78 95 110 120 124 127 129 132 133 133 133 132 130 128 124 120 117 113 109 106 102 98 93 89 84 80 76 72 67 63 58 53 49 45 42 40 38 36 35 33 32 33 36 41 47 54 63 75 82 86 88 90 89 88 86 83 78 74 68 63 58 51 42 31 20 9 3
116 117 125 141 141 139 143 155 150 140 138 134 130 123 116 108 98 82 66 64 71 88 106 120 128 133 135 137 137 137 136 133 130 126 122 120 117 114 110 107 102 98 93 89 84 80 76 72 67 62 57 52 47 43 39 36 34 31 29 28 29 32 36 41 47 54 62 69 74 77 80 83 85 86 85 81 75 70 64 57 49 39 28 16 7 0
137 135 141 148 147 144 139 153 148 138 137 134 132 130 126 120 111 99 85 73 67 68 75 100 123 133 137 139 141 141 139 135 131 128 127 125 122 119 115 111 107 102 97 93 88 85 81 76 71 66 61 55 50 45 41 37 33 30 28 26 28 31 36 41 46 52 57 62 66 69 71 75 80 83 84 81 77 71 65 56 46 36 24 12 3 357
146 145 148 145 141 138 136 141 136 130 127 125 124 123 117 111 104 99 96 96 88 79 66 76 105 124 135 140 144 144 142 138 135 132 131 130 127 123 119 115 110 105 101 96 93 89 86 82 77 72 66 60 54 48 43 39 34 31 28 26 28 32 38 44 49 53 56 60 61 63 65 69 72 75 78 78 76 72 66 57 46 35 23 10 0 354
151 149 147 141 132 126 123 123 122 120 116 113 109 103 93 89 89 93 95 100 99 91 76 71 85 106 127 138 145 146 143 140 138 136 135 133 130 126 121 117 113 108 104 100 97 94 91 87 83 78 73 67 61 54 48 43 38 33 29 28 29 34 42 48 53 56 58 59 59 61 63 65 66 68 69 71 72 71 67 59 48 36 24 11 1 355
154 147 143 139 129 118 110 114 120 122 118 110 100 90 81 80 83 89 95 97 98 95 83 73 70 82 108 134 144 146 143 141 140 138 136 134 131 128 124 120 116 112 108 104 101 98 95 92 88 84 78 73 68 62 56 50 45 40 36 33 34 37 44 51 56 59 59 58 58 59 61 63 63 64 63 64 65 65 63 57 48 38 27 16 5 357
144 139 136 127 115 105 106 118 130 135 133 121 108 96 85 80 77 75 78 87 98 101 94 78 65 64 78 126 140 142 141 140 139 138 137 135 133 130 126 122 119 115 111 108 105 102 100 96 92 88 82 77 72 66 61 55 50 46 44 42 41 43 47 52 56 58 59 58 58 58 61 64 66 65 63 61 59 57 55 51 44 38 31 20 10 1
139 138 144 134 122 113 111 125 141 146 143 136 129 120 111 96 82 72 64 62 79 99 105 91 73 60 53 111 134 138 139 140 140 140 139 137 134 131 128 125 121 118 115 112 109 106 103 99 95 91 85 79 74 69 63 56 52 48 47 47 48 49 51 54 57 58 59 59 59 61 64 67 70 70 68 62 57 53 48 44 39 36 31 22 11 3
144 146 152 148 142 136 136 141 155 159 154 145 143 142 139 134 122 104 80 61 56 82 116 113 101 82 49 96 131 138 143 148 149 149 148 145 140 135 131 127 123 120 117 114 111 108 105 102 99 95 90 84 78 71 64 56 50 47 46 48 49 51 54 56 58 59 60 62 63 66 69 73 76 77 75 69 63 55 47 40 35 30 25 16 9 3
144 147 148 147 145 144 146 149 154 159 158 148 146 149 150 150 147 140 131 117 92 80 116 120 117 109 84 104 133 141 145 146 142 138 139 133 136 139 133 128 124 121 117 114 111 108 105 103 101 98 95 90 84 77 68 58 50 45 45 46 48 50 52 55 58 61 65 68 70 74 77 81 84 86 85 81 73 65 54 44 34 25 17 9 4 2
144 144 140 135 132 131 133 134 136 141 145 136 135 142 154 159 159 157 160 159 158 152 127 103 102 107 112 122 135 136 134 123 110 100 101 104 115 122 120 119 118 117 114 111 107 104 102 101 100 100 100 98 93 86 76 65 53 45 44 46 48 49 50 52 56 62 67 74 80 84 89 93 97 97 97 94 88 79 69 54 40 26 15 6 3 2
146 143 136 132 127 122 114 110 109 118 134 137 146 157 172 177 174 170 169 168 166 162 147 105 70 56 64 104 128 130 126 116 105 94 84 90 96 103 108 111 111 111 111 107 103 100 97 97 97 98 103 104 102 97 86 72 56 49 46 49 49 48 47 47 51 55 64 75 84 95 102 109 110 111 110 106 100 93 84 69 51 33 21 12 9 8
144 138 132 132 133 135 131 128 131 143 162 171 176 177 178 180 180 178 173 168 165 160 148 126 87 38 14 12 69 132 133 128 121 115 104 94 91 96 108 109 110 110 112 110 106 102 99 98 99 101 107 117 122 125 123 107 82 61 56 57 57 53 48 44 44 46 53 66 81 96 111 118 120 119 116 112 106 101 91 78 61 43 30 21 16 14
143 139 136 140 147 152 152 153 159 168 180 187 188 185 175 171 171 172 163 156 152 147 139 132 119 84 24 357 349 84 139 136 133 129 123 108 95 93 114 117 116 116 122 123 116 111 111 112 113 120 142 161 161 159 168 163 152 131 107 91 80 69 61 50 44 43 45 56 72 94 110 118 122 121 117 112 106 100 92 81 65 50 38 29 23 21
152 151 154 159 163 165 166 170 176 180 183 187 188 182 161 160 164 164 156 149 142 137 133 132 129 121 99 356 315 304 160 148 145 143 143 128 108 85 111 123 122 123 132 126 118 113 119 127 143 162 179 183 179 175 188 179 171 163 156 146 130 114 91 74 57 48 47 58 75 93 109 118 121 120 117 111 106 100 91 81 68 55 43 35 29 26
159 161 168 171 174 174 173 177 182 186 184 184 181 174 161 164 166 166 159 150 145 143 145 148 150 155 176 178 217 246 229 170 159 154 154 143 134 113 133 145 137 135 141 130 122 119 125 143 168 179 173 155 142 139 281 184 172 167 168 163 152 139 123 120 124 130 130 121 111 112 116 121 122 121 119 114 108 101 93 84 73 61 50 41 34 30
166 174 179 181 182 179 174 178 183 186 182 179 176 174 170 169 167 164 159 151 148 152 161 163 166 170 177 175 191 208 218 192 171 160 156 149 144 140 254 185 154 145 143 135 127 126 136 152 169 171 149 131 124 121 283 224 188 176 173 164 155 144 136 143 164 178 176 166 155 142 132 128 126 125 122 118 114 108 100 91 81 69 58 48 41 36
178 183 187 193 190 182 171 176 181 183 178 174 170 168 166 162 161 159 157 154 156 162 169 174 177 178 175 177 179 184 196 197 180 164 159 152 145 138 188 221 175 149 141 138 135 133 138 145 146 135 114 117 118 185 274 253 211 182 171 161 151 144 142 159 183 188 182 172 165 158 149 140 134 131 128 126 122 117 110 101 91 79 67 56 49 43
192 189 191 200 197 186 173 177 178 178 174 170 164 160 158 157 159 160 161 162 166 170 172 178 183 187 189 176 161 161 178 191 184 170 166 153 142 138 167 191 183 160 144 140 136 135 134 124 118 113 112 118 152 241 254 241 211 183 168 159 154 151 154 176 191 188 177 169 166 162 158 151 146 140 137 135 132 128 122 114 103 93 80 69 60 53
203 196 193 199 200 194 184 180 178 175 173 165 160 159 164 164 166 168 168 169 173 176 174 178 185 189 182 135 131 144 166 179 183 177 170 147 137 140 163 176 175 163 148 135 128 127 133 133 133 138 149 167 201 229 242 231 208 184 167 161 158 161 168 182 187 182 168 163 161 160 159 156 151 148 145 142 141 138 133 125 116 105 93 83 72 63
214 207 200 199 202 203 194 180 173 169 164 155 155 159 167 167 171 173 172 169 171 176 181 186 185 171 116 111 126 146 164 173 178 179 168 143 135 140 163 176 175 165 150 132 126 129 140 145 151 160 172 185 203 220 229 223 203 181 168 164 163 167 174 179 178 169 158 155 154 153 153 149 147 143 140 137 135 133 133 130 124 117 107 95 84 74
229 221 209 208 211 211 199 168 158 154 150 149 154 164 171 171 174 175 171 167 171 176 182 170 104 68 69 94 117 142 162 174 180 179 159 146 139 142 156 175 176 166 150 133 130 138 150 157 165 171 179 187 200 216 225 216 198 180 170 167 169 171 175 176 171 161 154 150 148 147 145 143 140 137 134 128 125 122 121 123 123 122 119 110 99 86
254 251 237 221 218 171 101 121 130 137 143 151 161 168 169 172 174 173 169 169 166 158 132 102 80 68 70 81 88 97 118 196 208 189 160 157 147 141 148 166 172 166 149 131 132 142 156 164 168 173 175 186 199 214 224 216 199 182 174 172 172 172 173 170 165 159 153 150 148 147 145 144 142 140 136 131 125 119 112 113 117 121 122 117 109 93
280 307 337 23 45 58 70 99 117 131 142 150 153 154 151 159 160 157 152 144 130 115 104 104 101 96 88 91 95 94 65 9 326 236 176 157 138 128 140 158 164 160 137 124 129 142 155 162 164 164 166 181 196 210 219 212 197 183 177 175 174 173 171 167 162 158 153 152 151 151 151 150 149 148 146 143 139 132 124 118 116 118 120 119 110 96
23 29 37 53 68 82 97 118 131 138 143 139 130 119 110 111 108 102 97 103 107 111 117 118 118 117 114 118 123 130 140 36 331 277 183 134 117 113 138 159 162 150 125 116 124 140 155 160 160 158 160 178 195 208 215 208 197 186 180 178 176 174 171 167 163 159 156 154 153 153 153 154 154 152 152 152 150 148 144 133 127 123 120 118 111 101
72 74 79 86 94 102 114 129 138 143 144 139 132 125 118 113 108 104 102 112 121 129 132 136 139 139 133 134 138 146 153 152 281 289 207 119 114 119 141 168 164 143 120 116 130 152 164 161 156 154 158 174 191 200 205 201 194 186 182 180 178 176 173 169 165 162 158 156 153 152 152 152 152 152 152 154 155 155 153 146 141 135 132 133 133 133
94 97 101 104 110 118 127 136 142 145 145 142 141 139 136 130 127 129 138 145 147 149 151 156 153 145 136 143 146 146 147 161 199 248 277 117 119 126 148 172 163 139 120 121 138 164 174 163 155 150 153 156 169 181 190 189 186 183 181 178 176 175 172 169 166 163 159 156 154 152 152 152 154 155 156 159 161 163 163 159 156 155 162 172 169 170
102 105 109 115 123 130 136 141 144 146 146 145 145 145 144 143 146 153 162 160 158 159 164 164 159 151 151 154 147 137 139 163 184 205 241 131 120 126 143 162 158 141 122 118 125 152 175 165 152 143 143 139 132 133 150 162 170 172 172 171 170 168 165 163 160 157 153 151 151 149 151 154 156 159 162 166 169 173 174 172 172 176 186 205 213 208
101 102 105 111 119 127 134 139 143 146 147 148 149 151 153 156 161 165 163 158 159 164 172 169 163 154 148 140 128 122 140 170 178 182 188 138 119 120 134 150 156 146 125 117 115 123 176 186 160 146 142 142 136 130 131 141 149 154 154 154 152 150 148 147 145 143 142 142 143 147 150 157 161 164 168 172 178 182 184 184 185 188 192 200 212 218
104 103 103 108 113 118 123 129 137 143 147 148 150 152 157 164 170 165 151 155 162 168 173 167 158 149 140 131 126 133 170 177 172 168 168 146 130 125 134 150 159 159 145 133 132 140 166 181 174 161 151 148 147 148 149 147 144 143 140 141 137 133 130 126 126 127 127 133 141 152 165 172 174 175 179 184 189 194 197 198 203 205 200 202 209 213
118 115 114 115 115 116 117 120 126 133 138 139 138 138 138 144 150 148 143 158 167 172 169 159 151 146 146 143 148 161 178 168 164 164 168 152 136 132 142 152 164 173 173 158 150 151 158 164 170 167 157 155 157 159 163 163 160 157 152 147 140 133 128 123 123 126 132 148 168 187 201 203 203 201 203 208 212 215 217 219 224 229 229 223 222 218
121 118 117 116 114 112 111 112 113 116 120 118 111 99 80 69 79 105 131 153 166 170 160 149 145 147 155 160 161 159 151 147 158 165 169 154 133 130 145 151 161 176 193 190 177 164 155 152 159 165 163 165 167 167 169 170 168 167 169 168 157 147 143 146 149 160 182 188 199 208 214 217 221 223 224 229 234 237 239 238 239 241 246 243 241 236
118 114 111 109 107 107 106 109 110 110 109 104 97 86 71 63 60 63 70 79 99 131 138 139 142 149 158 154 137 115 105 131 158 167 168 152 133 130 145 149 157 165 176 188 251 267 174 130 136 152 166 173 173 171 171 172 172 173 179 186 177 164 158 164 175 192 204 202 203 205 208 212 217 222 228 233 237 242 244 243 242 242 241 242 245 245
123 123 121 118 117 114 114 113 112 112 111 107 100 93 81 69 60 54 47 40 34 36 61 112 133 145 153 141 119 101 104 134 160 167 167 152 137 136 145 152 156 160 163 173 194 215 158 116 125 139 155 168 174 175 173 174 174 175 179 196 197 182 163 166 176 196 207 204 202 203 203 204 209 214 220 225 229 233 237 238 239 240 240 236 238 242
134 134 134 131 129 126 123 119 116 113 109 104 99 95 88 81 71 61 52 48 42 40 39 49 68 99 127 129 127 125 130 146 164 169 167 154 140 137 144 157 160 161 163 170 177 176 157 140 141 145 145 156 170 178 177 171 167 167 173 194 208 205 172 158 165 178 196 198 203 203 198 196 202 208 214 217 220 224 229 234 237 239 241 240 238 238
144 145 144 141 137 134 130 126 122 116 110 103 97 94 92 86 79 71 62 58 57 57 55 50 46 43 44 60 91 115 130 143 160 168 166 154 141 138 145 160 164 163 164 169 173 172 160 151 151 153 151 155 161 169 170 163 158 160 170 188 201 204 187 163 159 167 184 198 207 206 195 190 194 201 208 210 214 219 227 234 239 242 244 245 245 244
151 150 150 146 142 139 135 132 127 122 117 111 103 97 92 89 85 80 72 65 65 66 67 63 57 51 45 49 62 84 114 133 150 160 161 149 142 143 150 158 163 166 167 170 172 170 160 152 154 161 167 166 162 156 156 156 160 166 179 187 192 193 185 169 163 168 181 203 209 207 197 185 187 196 202 202 204 213 227 236 239 242 244 244 245 244
154 153 151 147 143 140 138 135 131 126 120 114 107 100 95 92 89 86 80 73 70 70 72 69 64 58 52 57 62 72 90 109 125 134 134 127 133 146 150 151 162 171 174 172 170 167 160 155 159 168 183 176 155 141 143 153 164 174 180 179 182 182 177 168 165 171 182 201 210 212 201 185 177 181 192 186 186 196 218 229 232 233 235 236 238 239
155 152 150 149 149 146 143 135 128 120 112 106 104 102 101 97 92 88 82 76 73 72 74 76 73 66 56 56 58 62 66 71 77 80 77 67 69 116 145 148 160 169 174 173 170 168 166 165 167 171 175 164 143 132 135 149 159 164 163 162 171 180 182 171 169 173 182 193 204 207 201 182 168 169 183 179 184 194 208 214 217 217 216 219 228 234
153 150 149 148 143 132 123 119 116 113 110 109 108 108 106 102 95 89 82 78 77 78 81 83 82 77 66 61 59 58 56 54 53 53 51 36 21 14 123 142 149 155 159 165 171 174 175 177 174 170 162 150 141 138 139 150 157 158 153 155 170 184 183 175 173 175 179 185 193 196 193 179 172 174 185 188 193 200 206 209 209 206 199 195 205 222
153 148 145 130 109 94 92 99 107 112 116 118 117 114 111 108 105 100 93 87 84 86 92 92 90 85 77 68 63 58 53 50 48 46 41 22 3 351 21 119 135 141 145 150 158 167 175 170 159 146 135 130 131 136 142 154 161 165 164 169 172 171 168 170 173 174 176 183 190 194 193 185 181 182 190 196 200 203 205 204 204 203 192 184 184 193
156 151 137 117 104 97 98 103 110 116 122 123 123 122 122 121 121 118 115 107 104 105 111 115 111 106 98 90 79 69 58 55 52 47 38 16 358 349 1 84 118 133 141 141 141 142 139 125 117 116 117 119 126 134 143 153 161 169 177 179 167 153 148 165 169 170 172 179 186 193 196 190 187 187 192 198 201 201 197 196 204 210 209 203 199 200
151 135 119 111 109 111 112 114 118 123 129 129 128 128 129 131 131 130 126 123 126 131 136 137 133 128 119 113 103 92 81 74 69 63 47 17 355 348 355 50 102 126 140 138 135 128 112 100 101 109 117 119 128 138 149 151 158 169 186 188 178 166 163 168 166 165 169 176 181 186 191 193 191 191 193 196 194 190 182 194 208 216 219 217 215 215
122 109 105 109 112 116 120 125 131 136 138 134 131 130 134 139 140 137 132 131 134 140 147 151 145 134 124 122 117 112 103 95 87 79 64 34 5 352 352 18 67 115 136 137 136 133 125 122 126 127 110 108 123 144 158 158 162 171 184 189 191 189 187 161 153 155 170 177 181 183 186 190 192 190 191 192 191 187 182 190 202 214 220 220 219 217
109 108 111 117 122 128 135 140 143 144 143 137 134 133 139 146 147 145 140 138 139 144 154 158 153 143 135 132 128 124 119 115 111 105 95 55 18 358 352 4 22 50 88 118 131 136 139 149 154 148 119 111 128 166 187 184 179 178 179 183 191 201 215 160 146 150 166 177 181 181 178 176 175 177 185 197 200 201 199 199 203 208 213 214 217 217
116 120 124 128 134 141 147 147 147 146 144 138 136 136 141 149 150 148 146 142 142 147 158 163 162 155 146 142 138 135 133 133 133 131 127 123 115 348 352 16 25 28 28 38 50 73 115 140 147 145 134 139 162 197 209 207 201 194 184 178 179 188 214 190 165 160 166 173 174 169 160 155 156 169 191 202 209 210 209 205 203 203 204 206 210 213
133 134 137 140 144 148 150 147 148 148 149 144 140 138 142 147 150 151 149 147 145 147 154 163 168 165 156 147 145 145 148 148 147 145 141 144 150 154 141 83 52 40 33 33 29 24 21 19 30 125 149 160 176 196 206 206 206 204 196 179 173 175 190 197 190 177 170 171 163 150 139 139 151 175 199 207 215 218 216 211 207 204 200 201 204 208
144 145 146 148 150 152 151 151 153 156 156 150 144 140 144 152 157 157 151 150 147 147 152 162 172 176 167 156 153 153 155 154 153 151 149 150 151 151 145 129 105 81 59 49 35 23 11 353 333 299 222 194 189 192 193 196 199 201 200 183 176 176 185 191 185 176 170 163 147 136 134 143 160 180 195 205 215 221 220 215 210 206 201 200 202 205
150 151 152 154 156 157 157 158 160 163 163 153 147 144 148 156 161 160 152 152 150 151 157 166 174 178 175 163 157 156 157 155 152 149 149 151 151 149 146 141 136 129 116 102 88 38 293 274 259 251 244 232 222 211 201 193 191 191 193 186 179 177 181 182 174 166 158 146 133 128 136 154 171 183 189 202 214 224 224 218 213 207 202 200 201 204
155 155 156 158 160 161 160 162 166 169 168 158 152 148 150 156 161 160 154 153 155 159 163 170 176 179 177 165 159 158 160 154 150 147 149 150 151 151 150 150 148 145 141 144 156 178 207 230 233 232 229 228 226 225 221 207 194 185 183 184 179 177 178 176 167 158 150 141 132 127 131 157 179 192 196 208 220 229 232 229 221 214 205 200 200 204
159 158 159 161 162 163 162 165 170 173 172 162 155 151 152 155 157 157 154 158 163 168 171 175 180 183 180 165 159 159 162 154 148 147 150 149 151 154 156 156 158 158 157 160 168 179 191 204 214 218 219 217 216 216 221 216 202 187 181 181 177 172 173 174 163 154 147 141 137 135 139 161 189 203 206 209 218 228 236 235 233 223 209 199 197 200